This is the latest recevied weather packets stored in our database for station/object HB9HFD-13. If no packets are shown the sender has not sent any weather packets the latest 1 day(s).
| Time | Temp. | Humidity | Pressure | Rain* | Wind** | Luminosity | Snow |
|---|---|---|---|---|---|---|---|
| 1778069466 | 10° C | 90% | 1008 hPa | 0.51 mm | - | - | - |
| 1778068565 | 10.56° C | 85% | 1007.9 hPa | 0.25 mm | - | - | - |
| 1778068265 | 10.56° C | 90% | 1007.9 hPa | 0 mm | - | - | - |
| 1778067364 | 11.11° C | 92% | 1007.8 hPa | 0 mm | - | - | - |
| 1778066163 | 10.56° C | 94% | 1007.8 hPa | 0.25 mm | - | - | - |
| 1778065563 | 10.56° C | 94% | 1007.8 hPa | 0.51 mm | - | - | - |
| 1778064962 | 10.56° C | 94% | 1007.8 hPa | 1.02 mm | - | - | - |
| 1778064061 | 10° C | 95% | 1007.9 hPa | 1.27 mm | - | - | - |
| 1778063761 | 10° C | 94% | 1007.9 hPa | 1.52 mm | - | - | - |
| 1778063160 | 10° C | 94% | 1007.9 hPa | 1.78 mm | - | - | - |
| 1778061659 | 9.44° C | 94% | 1007.8 hPa | 2.54 mm | - | - | - |
| 1778060758 | 8.89° C | 94% | 1007.7 hPa | 3.3 mm | - | - | - |
| 1778060458 | 8.89° C | 94% | 1007.7 hPa | 3.56 mm | - | - | - |
| 1778059257 | 8.89° C | 94% | 1007.5 hPa | 4.32 mm | - | - | - |
| 1778058656 | 8.89° C | 94% | 1007.4 hPa | 4.57 mm | - | - | - |
| 1778058356 | 8.89° C | 94% | 1007.3 hPa | 4.32 mm | - | - | - |
| 1778058056 | 8.89° C | 94% | 1007.2 hPa | 4.32 mm | - | - | - |
| 1778057455 | 8.89° C | 94% | 1007 hPa | 4.32 mm | - | - | - |
| 1778057155 | 8.89° C | 94% | 1006.8 hPa | 4.32 mm | - | - | - |
| 1778056554 | 9.44° C | 95% | 1006.7 hPa | 4.06 mm | - | - | - |
| 1778056254 | 9.44° C | 95% | 1006.5 hPa | 4.32 mm | - | - | - |
| 1778055954 | 9.44° C | 95% | 1006.4 hPa | 4.06 mm | - | - | - |
| 1778055353 | 9.44° C | 95% | 1006.3 hPa | 4.32 mm | - | - | - |
| 1778055053 | 9.44° C | 95% | 1006.2 hPa | 4.32 mm | - | - | - |
| 1778054753 | 9.44° C | 95% | 1006.2 hPa | 4.32 mm | - | - | - |
* Rain latest hour (hover to see other rain measurements)
** Current wind speed in m/s (hover to see current wind gust speed)